Location: Newark
(41.6500°N, 71.4833°W)
Time: 15:35:57
(UTC+00:00)

A-11 Canister half - Pass Details

Date: 22 January 2020
Orbit: 1517 x 1683 km, 47.2° (Epoch: 23 February)

Event Time Altitude Azimuth Distance (km) Brightness Sun altitude
Rises 07:51:01 0° 274° (W) 4,686 - -47.4°
Reaches altitude 10° 07:54:09 10° 278° (W) 3,692 - -46.8°
Maximum altitude 08:03:20 62° 358° (N) 1,676 - -45.1°
Exits shadow 08:05:53 48° 52° (NE) 1,914 9.6 -44.7°
Drops below altitude 10° 08:12:32 10° 79° (E) 3,698 11.6 -43.5°
Sets 08:15:40 0° 83° (E) 4,693 12.4 -42.9°
